Other Public Products
Issued by NWS Charleston, SC

Current Version | Previous Version | Graphics & Text | Print | Product List | Glossary On
Versions: 1 2 3 4 5 6 7 8 9 10 11 12 13 14 15 16 17 18 19 20 21 22 23 24 25 26 27 28 29 30 31 32 33 34 35 36 37 38 39 40 41 42 43 44 45 46 47 48 49 50
000 FPUS82 KCHS 171727 OPUCHS TEST...KCHS/KSAV Gateway Observations...TEST National Weather Service Charleston SC 1200 PM EST TUE JAN 17 2017 NOTE: "fair" indicates few or no clouds below 12,000 feet with no significant weather and/or obstructions to visibility. SCZ050-WAZ558-NCZ071-TXZ119-213-PAZ071-DCZ001-FLZ074-172-MI076- NYZ176-178-MAZ016-IL014-TNZ027-NJZ106-GAZ044-MD014-171800- ...Gateway Observations for Charleston International... CITY SKY/WX TMP DP RH WIND PRES REMARKS Chas Airport PTSUNNY 69 59 70 VRB6 30.26F Seattle MOCLDY 40 39 97 S6 29.75F WCI 36 Charlotte CLOUDY 57 52 83 SW9 30.21F Dallas DFW PTSUNNY 48 37 65 N10 30.22F Dallas Love PTSUNNY 48 36 63 N10 30.23S Philladelphia CLOUDY 42 37 82 CALM 30.16F Wash National CLOUDY 47 45 93 S9 30.11F Baltimore LGT RAIN 43 43 100 SE6 30.09F FOG Miami MOSUNNY 81 61 50 SE12 30.24F Detroit FOG 40 39 97 SW5 29.78S VSB 3/4 WCI 37 Newark LGT RAIN 39 35 86 S3 30.18F FOG Laguardia LGT RAIN 41 35 79 E6 30.18F J F K RAIN 40 34 79 CALM 30.19F Boston Logan MOSUNNY 41 29 62 NE8 30.23F Ft. Lauderdale MOSUNNY 79 62 56 SE14 30.23F Chicago O`Hare CLOUDY 38 36 92 W12 29.85F WCI 30 Chicago Midway CLOUDY 37 36 96 W12 29.87S WCI 29 Houston Bush CLOUDY 60 58 92 NE9 30.12R Houston Hobby CLOUDY 74 71 91 S8 30.09R Nashville CLOUDY 63 58 83 SW8 30.06F Atlanta PTSUNNY 71 55 56 SW13 30.21F $$ GAZ044-118-TXZ119-213-NCZ071-DCZ001-MDZ014-506-PAZ021-071-NJZ106- NYZ176-178-MAZ106-OHZ011-021-055-MIZ076-KYZ091-ILZ014-INZ047- MNZ060-171800- ...Gateway Observations for Savannah International... CITY SKY/WX TMP DP RH WIND PRES REMARKS Savannah Arpt MOSUNNY 68 60 75 VRB6 30.27F Atlanta PTSUNNY 71 55 56 SW13 30.21F Charlotte CLOUDY 57 52 83 SW9 30.21F Dallas DFW PTSUNNY 48 37 65 N10 30.22F Houston Bush CLOUDY 60 58 92 NE9 30.12R Wash National CLOUDY 47 45 93 S9 30.11F Wash Dulles CLOUDY 44 41 89 S7 30.10F Baltimore LGT RAIN 43 43 100 SE6 30.09F FOG Philadelphia CLOUDY 42 37 82 CALM 30.16F Newark LGT RAIN 39 35 86 S3 30.18F FOG Laguardia LGT RAIN 41 35 79 E6 30.18F J F K RAIN 40 34 79 CALM 30.19F Boston MOSUNNY 41 29 62 NE8 30.23F Pittsburg CLOUDY 59 55 87 SW10G18 29.86F Akron CLOUDY 58 53 84 SW16 29.82F Cleveland CLOUDY 58 53 84 SW8 29.82F Cincinnati PTSUNNY 58 53 84 W18 29.91S Columbus N/A 62 55 80 SW16G24 29.86F Detroit FOG 40 39 97 SW5 29.78S VSB 3/4 WCI 37 Chicago O`Hare CLOUDY 38 36 92 W12 29.85F WCI 30 Minneapolis PTSUNNY 31 24 75 NW7 29.97F WCI 24 Indianapolis CLOUDY 46 42 86 W16 29.93S $$

USA.gov is the U.S. government's official web portal to all federal, state and local government web resources and services.